カタログに戻る

ONEWEB-0393

運用中通信PO
NORAD 50473·PAYLOAD·🇬🇧 United Kingdom

打ち上げ Dec 27, 2021 から Baikonur Cosmodrome

Loading…

次のパス (今後24時間)

TLE

最新Source: CelesTrak SupGP

元期: Sep 14, 2026, 19:48 UTC

1 50473C 21132E   26257.82553655 -.00001718  00000+0 -44311-2 0  2579
2 50473  87.9198 348.0628 0001947 107.0211 314.1223 13.17648090    13

AllMySatでONEWEB-0393をリアルタイム追跡

Download on the App Store